Weather Roundup
Issued by NWS

Home | Current Version | Previous Version | Graphics & Text | Print | Product List | Glossary Off
Versions: 1 2 3 4 5 6 7 8 9 10 11 12 13 14 15 16 17 18 19 20 21 22 23 24 25 26 27 28 29 30 31 32 33 34 35 36 37 38 39 40 41 42 43 44 45 46 47 48 49 50

000
NZUS93 KARX 190159
HRRWXR

CURRENT HOURLY OBSERVATIONS ACROSS
MUCH OF THE UPPER MISSISSIPPI VALLEY
NATIONAL WEATHER SERVICE LA CROSSE WI
900 PM CDT SAT APR 18 2015


...SOUTHEAST MINNESOTA...


CITY           SKY/WX    TMP DP  RH WIND       PRES   REMARKS
ROCHESTER      LGT RAIN  57  51  80 SW9       29.97R
ROCHESTER/MAYO CLOUDY    65  40  41 E5        29.95R
WINONA         CLOUDY    61  32  33 SE13      29.95S
AUSTIN         LGT RAIN  57  54  88 E7        29.92F
ALBERT LEA     LGT RAIN  57  57 100 E10       29.90F
DODGE CENTER   LGT RAIN  57  54  88 S7        29.95S
PRESTON        CLOUDY    63  38  39 SE3       29.94R
OWATONNA       LGT RAIN  59  55  88 SE7       29.93F
FARIBAULT      LGT RAIN  59  57  94 SE3       29.93F
$$

...ELSEWHERE IN MINNESOTA...


CITY           SKY/WX    TMP DP  RH WIND       PRES   REMARKS
MINNEAPOLIS    CLOUDY    67  36  31 E15       29.91R
INTNL FALLS    CLOUDY    52  13  21 SE14G20   29.98F
DULUTH         MOCLDY    41  26  55 E17       30.03F
RED WING       CLOUDY    66  30  26 SE10      29.93R
REDWOOD FALLS  LGT RAIN  57  56  96 NE5       29.84F FOG
MANKATO        CLOUDY    57  50  77 SE18      29.90S
WORTHINGTON    CLOUDY    55  52  88 E7        29.83S
FAIRMONT       CLOUDY    57  52  82 E18G25    29.85R
$$

...SOUTHWEST WISCONSIN...


CITY           SKY/WX    TMP DP  RH WIND       PRES   REMARKS
LA CROSSE      MOCLDY    63  28  26 SE12G18   29.96S
PRAIRIE DU CHI CLOUDY    66  30  26 E13       29.93R
BOSCOBEL       MOCLDY    65  28  24 E9        29.96S
LONE ROCK      NOT AVBL
PLATTEVILLE    MOCLDY    61  33  35 E12       29.95S
FORT MC COY    PTCLDY    58  22  24 E9G16     30.00S
VIROQUA        FAIR      58  30  35 E15       29.97S
WIS DELLS      PTCLDY    56  25  30 E10       30.01S
$$

...ELSEWHERE IN WISCONSIN...


CITY           SKY/WX    TMP DP  RH WIND       PRES   REMARKS
MILWAUKEE      PTCLDY    42  32  67 N14       30.08R
MADISON        MOCLDY    56  32  40 E9        30.01S
GREEN BAY      PTCLDY    46  33  60 NE12      30.10F
EAU CLAIRE     NOT AVBL
BLACK RVR FLS  FAIR      59  25  27 E8        30.00R
MEDFORD        MOCLDY    52  21  29 E8        30.04F
WAUSAU         MOCLDY    52  16  24 E14       30.05F
WIS RAPIDS     PTCLDY    53  17  24 E13       30.05S
MARSHFIELD     PTCLDY    53  19  26 E13       30.04S
RICE LAKE      CLOUDY    59  30  34 E10       29.99F
$$

...NORTHEAST IOWA...


CITY           SKY/WX    TMP DP  RH WIND       PRES   REMARKS
DECORAH        CLOUDY    63  37  39 E16G22    29.91S
MASON CITY     RAIN      58  32  37 SE6       29.93R
CHARLES CITY   LGT RAIN  57  57 100 NE14      29.89F
OELWEIN        CLOUDY    64  41  42 E18G25    29.88S
$$

...ELSEWHERE IN IOWA...


CITY           SKY/WX    TMP DP  RH WIND       PRES   REMARKS
DES MOINES     LGT RAIN  62  59  90 NE6       29.83S
IOWA CITY      TSTM      63  56  78 W8        29.94R
FORT DODGE     CLOUDY    57  54  88 E9        29.86S
$$

...NORTHERN ILLINOIS...


CITY           SKY/WX    TMP DP  RH WIND       PRES   REMARKS
CHICAGO-OHARE  MOCLDY    47  33  58 NE12      30.03R
CHICAGO-MIDWAY CLOUDY    50  34  54 N10       30.02S
MOLINE         MOCLDY    68  47  46 E17       29.91R
ROCKFORD       MOCLDY    56  32  40 E14G20    30.02R
PEORIA         PTCLDY    72  46  39 S7        29.92R
$$

NOTE: "FAIR" INDICATES FEW OR NO CLOUDS BELOW 12,000 FEET WITH NO
SIGNIFICANT WEATHER AND/OR OBSTRUCTIONS TO VISIBILITY. WIND
SPEEDS ARE IN MILES-PER-HOUR.



USA.gov is the U.S. government's official web portal to all federal, state and local government web resources and services.